Theta_e
330 336 341 351 352 353 352 352 352 353 352 353 353 353 352 351 350 351 351 351 351 352 350 350 349 349 349 349 348 348 347 347 348 347 346 346 346 346 346 346 346 346 347 347 348 349 349 350 349 349 349 348 347 350 351 352 353 352 351 350 351 350 349 350 350 350 348 356 355 355 354 353 353 354 354 353 355 355 354 353 352 349 349 351 352
333 335 340 343 351 352 351 351 351 352 352 352 353 353 352 352 350 350 350 350 351 351 351 350 350 350 349 348 349 347 347 347 347 346 346 345 345 345 345 346 346 346 346 347 347 347 347 347 348 348 348 348 348 349 352 352 352 351 351 350 350 349 348 348 349 350 351 352 352 354 352 353 353 355 353 354 354 354 353 351 351 348 347 353 354
332 333 339 342 350 351 353 352 350 351 351 352 352 352 352 352 351 351 350 350 351 351 350 350 349 349 349 349 349 347 347 347 347 346 346 345 345 345 344 344 344 344 345 346 347 347 346 346 346 346 348 348 348 350 352 351 351 351 350 350 349 349 348 349 348 349 352 352 351 351 349 350 351 348 350 352 353 353 352 351 351 350 349 354 353
330 331 338 342 346 349 352 352 353 354 354 354 354 354 352 351 351 350 350 350 351 351 350 350 350 349 349 349 348 348 348 347 347 346 347 346 345 347 348 345 345 345 344 346 347 347 347 347 346 345 346 349 350 351 352 351 352 351 350 349 348 349 348 349 349 351 352 351 350 348 347 348 348 350 350 353 353 353 351 350 350 351 354 353 354
324 331 338 338 339 345 350 351 352 353 352 353 352 351 351 351 351 350 350 351 351 351 351 350 350 348 348 348 349 348 348 348 347 347 346 346 345 347 349 349 346 346 345 346 347 347 346 346 346 346 345 349 351 352 352 351 351 350 350 350 349 348 348 349 350 351 350 349 348 346 346 347 347 351 352 353 353 352 350 350 351 352 351 352 352
319 331 334 339 337 338 347 351 350 352 352 350 350 350 351 350 351 351 351 351 351 351 351 350 350 350 349 349 349 349 349 348 348 347 347 347 346 345 348 346 345 345 345 345 346 346 346 345 345 345 345 347 350 352 353 352 351 350 350 350 349 349 349 349 350 351 349 347 346 345 347 347 347 349 352 353 353 351 351 352 351 349 349 349 352
317 322 334 333 337 338 343 349 350 351 352 352 350 351 351 351 351 351 351 350 349 349 349 349 349 347 348 349 348 347 349 348 348 348 347 347 346 346 348 347 345 345 345 346 346 345 344 345 345 345 345 347 349 351 352 352 351 350 349 349 348 348 349 349 349 349 348 346 344 343 345 347 346 346 352 353 352 353 353 352 349 350 349 350 351
322 322 330 339 341 340 343 348 349 350 351 351 351 351 351 351 351 351 351 350 350 350 348 349 349 349 348 348 348 347 348 348 347 348 348 346 346 347 346 346 345 346 346 346 347 346 345 345 345 345 346 347 348 349 351 352 351 350 348 348 347 349 349 348 349 348 346 346 343 343 344 346 346 347 351 353 353 354 353 352 351 351 351 351 348
322 321 330 336 338 341 343 347 349 349 350 350 350 350 351 351 351 351 350 350 350 350 350 350 349 349 349 349 347 347 348 348 348 347 347 346 346 346 346 345 346 345 348 348 348 347 347 346 346 346 345 346 348 350 352 352 351 350 349 349 348 348 348 347 347 345 345 345 343 341 344 345 346 346 351 352 353 353 352 351 350 350 350 350 348
323 322 323 329 333 339 342 345 345 346 348 349 349 349 350 350 350 350 351 351 351 350 350 349 348 349 350 349 347 347 347 347 345 347 347 347 347 345 345 347 348 347 347 349 348 348 348 347 346 346 345 345 348 351 351 351 351 350 349 348 348 348 348 346 345 342 346 344 343 340 342 345 345 346 350 352 352 352 352 347 346 345 347 348 347
322 323 324 325 329 335 340 341 342 342 343 344 345 347 348 349 349 350 350 350 350 350 350 350 349 348 347 348 346 347 347 347 347 347 348 349 347 346 348 347 347 347 347 347 348 348 348 348 347 347 347 346 348 351 351 351 350 349 349 349 348 347 348 346 341 341 344 343 342 338 341 344 345 345 352 352 353 349 349 345 344 345 347 348 350
320 322 324 325 330 333 337 341 338 340 340 341 342 343 344 348 348 349 349 349 350 348 348 348 348 346 346 346 347 348 347 347 347 347 348 348 349 348 348 348 347 347 347 347 347 348 347 348 348 348 347 346 347 350 351 350 350 349 348 348 347 347 346 344 341 341 342 342 340 337 340 343 345 347 352 353 353 352 347 346 348 349 350 350 350
315 316 319 320 320 325 330 336 339 338 339 339 340 340 342 343 346 347 348 348 348 347 349 347 347 347 347 347 348 347 347 347 346 345 345 348 348 348 348 348 347 347 347 346 346 347 347 347 347 347 346 345 346 346 350 350 349 348 348 347 347 346 344 341 342 340 341 340 337 337 339 340 340 347 352 351 351 351 350 349 349 349 351 351 350
311 311 312 313 313 320 323 325 329 336 338 338 339 339 340 341 342 343 345 347 347 348 346 347 346 346 347 346 346 347 348 347 347 347 347 345 345 348 347 346 347 346 346 346 346 346 346 347 347 347 347 346 345 343 345 349 349 348 347 347 346 344 341 338 338 340 339 338 336 337 338 339 339 347 352 352 351 349 350 350 350 350 350 350 350
308 309 309 310 310 311 319 321 322 325 330 335 338 338 339 339 339 341 343 344 345 345 346 346 346 346 345 347 347 346 346 347 347 347 346 344 344 347 345 343 343 344 346 346 346 346 347 347 347 347 348 348 347 346 343 346 349 348 346 345 345 342 339 340 339 338 338 338 337 337 338 338 341 347 352 351 350 350 349 351 350 350 350 350 350
309 306 307 308 309 309 310 316 319 321 322 325 330 334 336 337 338 339 339 340 343 344 344 344 345 344 344 343 345 345 345 345 346 346 347 346 346 346 343 343 344 343 346 346 346 346 346 346 346 346 347 347 347 347 345 344 348 347 345 344 342 339 335 335 338 338 338 338 337 336 337 338 342 347 352 351 349 350 349 351 350 350 350 350 349
308 306 305 306 308 308 309 310 314 317 317 320 322 325 329 335 336 338 338 338 338 340 341 342 343 344 344 343 342 343 343 344 346 344 345 346 345 344 343 343 344 345 346 346 346 345 345 345 345 345 346 346 346 346 345 344 346 346 343 341 340 338 334 332 337 337 337 336 335 336 336 339 342 347 352 351 349 348 349 349 349 349 349 349 349
306 305 303 304 305 306 308 308 310 310 310 314 317 321 325 329 333 335 335 336 337 338 338 338 340 341 341 341 340 338 339 340 342 344 344 343 343 344 344 344 344 344 345 345 345 345 345 345 345 345 345 345 346 345 345 344 345 344 341 340 339 337 333 328 335 337 337 335 335 336 338 339 343 348 350 350 350 349 348 347 346 347 348 349 345
303 303 303 303 303 305 305 306 309 309 309 311 313 315 321 323 327 330 332 334 337 335 335 335 335 335 336 336 335 333 332 333 335 337 340 339 337 337 339 344 344 343 345 345 345 345 345 344 344 344 344 345 345 345 345 344 343 341 340 339 336 333 330 329 334 335 335 334 335 336 338 341 344 348 348 348 350 350 348 346 344 346 346 347 345
302 302 302 302 303 303 303 303 307 308 307 309 312 313 317 320 322 325 327 329 331 332 333 333 330 327 328 328 327 328 328 331 328 330 331 335 334 333 333 340 343 344 344 344 344 344 344 344 344 344 344 344 344 343 342 343 343 340 338 336 333 328 334 334 334 333 334 334 334 336 338 341 345 347 350 348 349 347 346 344 343 346 347 346 344
302 301 301 302 302 302 301 301 304 305 304 307 310 312 314 317 317 319 321 323 325 327 328 326 324 323 323 323 323 328 330 331 333 332 326 330 327 327 330 337 340 341 341 342 343 343 343 343 343 343 343 343 339 338 335 339 341 339 337 334 329 331 335 335 334 332 333 333 334 336 338 341 345 347 350 350 350 348 347 344 343 346 346 346 345
298 299 300 301 301 301 301 300 301 303 302 305 308 311 312 314 313 315 317 319 320 321 324 327 323 326 324 326 328 328 329 331 332 329 332 330 329 325 327 332 338 338 338 340 341 341 342 342 342 342 342 341 336 337 334 331 333 336 333 330 331 330 331 333 333 330 333 333 332 335 338 342 346 347 349 349 348 348 347 345 344 346 346 344 345
297 298 298 300 300 300 301 299 300 301 301 301 304 307 308 309 311 313 315 318 317 318 321 323 326 328 328 329 327 329 330 330 331 330 331 327 329 326 326 329 333 335 335 336 338 339 340 341 341 340 340 336 335 336 336 335 335 327 325 330 330 331 331 331 330 328 332 332 334 333 337 343 347 349 350 350 350 348 347 345 345 346 345 344 344
295 296 297 300 299 299 300 299 300 301 301 300 302 302 304 306 306 309 312 314 315 317 318 320 322 325 327 329 329 329 330 331 326 324 322 329 330 324 324 326 327 329 328 331 333 335 338 338 337 337 335 332 335 335 335 334 334 333 333 331 331 330 329 329 328 327 332 332 334 332 337 344 348 347 349 351 348 346 347 346 345 345 343 343 344
295 296 297 298 298 299 299 299 299 300 300 300 300 300 303 302 302 305 309 310 312 314 316 317 320 321 323 324 327 328 330 332 333 332 331 331 331 331 330 328 328 329 326 329 331 331 331 332 332 332 332 332 334 335 335 333 332 332 331 330 331 329 326 328 327 327 331 333 333 330 334 342 348 348 348 348 348 347 346 345 343 343 343 343 341
295 294 295 296 297 298 297 298 298 299 299 299 299 300 301 299 300 303 305 306 308 310 313 316 317 319 320 321 322 323 325 327 330 331 332 332 329 330 330 330 329 328 329 329 330 329 329 328 328 329 331 332 333 333 333 332 331 330 329 328 329 328 326 327 328 327 330 332 330 328 333 339 346 346 347 348 348 346 346 345 344 343 343 343 342
292 292 293 294 296 296 296 297 296 299 298 299 299 299 299 298 299 302 302 302 304 306 309 309 311 315 318 319 320 321 322 324 326 328 329 330 330 329 329 329 329 329 329 329 329 329 328 328 327 327 329 331 332 332 332 332 331 329 328 327 326 326 327 327 328 329 330 331 327 326 330 335 344 346 346 348 348 347 347 344 346 344 343 342 343
291 292 292 293 294 295 295 296 296 297 297 298 298 298 297 298 298 300 300 302 303 303 302 303 308 313 316 318 318 320 321 322 324 325 327 328 327 326 327 328 328 329 329 329 329 328 328 328 327 326 328 330 330 330 331 331 331 329 327 326 325 324 326 327 328 329 330 330 330 325 328 332 338 342 345 347 347 347 347 346 346 344 343 341 343
291 291 292 292 293 295 295 295 295 295 296 297 296 296 297 297 297 298 298 303 301 300 300 302 305 308 311 314 316 317 319 321 322 323 324 325 326 327 327 327 328 328 328 329 329 328 327 327 327 327 328 328 329 329 329 329 330 330 328 326 324 324 325 327 328 329 330 330 329 326 326 331 336 340 344 346 347 347 345 347 346 346 344 343 343
291 291 291 292 293 294 294 294 294 295 295 295 295 295 295 295 295 296 297 299 298 299 299 301 303 303 304 306 307 311 314 317 319 321 322 323 325 326 326 325 325 326 327 327 327 328 327 326 326 325 326 327 327 328 327 328 328 329 328 326 325 324 325 327 328 329 329 329 329 328 323 328 333 339 341 344 343 344 347 344 346 346 345 345 344
291 291 291 292 294 293 294 294 294 295 295 294 294 294 295 294 295 295 296 296 297 298 298 300 300 300 301 301 303 306 309 312 315 318 320 321 323 324 324 325 324 325 327 327 327 327 327 326 325 325 325 325 326 327 327 327 326 327 327 327 326 325 326 327 328 328 328 328 329 328 327 324 329 333 336 340 342 343 346 344 345 345 345 345 344
290 291 291 292 292 293 293 294 294 294 294 294 294 294 294 294 295 295 295 296 297 296 297 298 298 298 299 300 301 302 304 306 308 311 314 317 320 321 323 324 324 324 325 326 326 325 326 325 325 324 323 323 325 326 326 326 325 326 327 326 326 326 326 327 327 327 326 327 328 329 328 327 323 328 331 337 339 341 341 341 342 344 343 344 344
290 291 291 291 291 292 293 293 294 293 293 293 293 293 293 294 294 294 294 296 295 296 296 296 297 297 298 299 299 300 302 303 304 309 314 317 317 318 320 321 324 324 324 325 325 324 324 323 321 320 320 321 322 323 324 324 324 325 325 326 326 326 326 326 326 326 325 326 326 327 328 327 328 320 324 328 336 337 339 340 342 341 343 341 341
291 290 290 291 292 293 294 295 294 293 293 293 294 293 293 293 294 293 294 294 295 295 295 296 296 296 297 297 298 299 300 301 305 310 311 311 314 316 317 319 322 323 324 324 323 323 322 322 320 319 317 319 320 321 321 321 322 322 323 324 325 325 325 325 325 325 325 324 324 325 326 326 326 325 327 322 326 332 337 338 339 339 339 339 340
290 290 290 290 291 291 294 293 293 292 293 293 293 293 293 293 293 293 294 294 294 294 295 295 296 296 296 296 297 298 299 301 305 304 306 310 312 314 315 317 319 321 322 323 323 323 323 321 319 319 318 319 320 320 321 321 320 319 319 321 324 324 324 324 323 323 323 324 323 323 324 324 325 325 325 326 317 326 332 335 338 338 337 339 337
290 290 290 290 290 290 292 291 292 292 292 293 292 292 293 293 293 295 293 293 293 293 294 294 295 296 296 296 297 297 298 300 301 303 307 308 308 309 313 315 317 318 320 322 322 321 321 321 318 319 317 317 318 318 320 320 320 319 318 317 320 322 323 322 321 321 321 322 323 322 322 321 323 323 319 321 321 323 324 330 334 335 336 336 336
290 289 288 288 289 290 291 290 291 291 291 291 292 292 292 292 292 292 293 293 293 293 294 294 295 295 296 296 296 297 298 299 300 304 305 302 304 308 311 313 315 316 318 320 322 321 320 318 317 318 319 317 317 317 318 319 318 318 318 317 315 318 321 320 320 320 320 321 320 321 320 320 319 315 321 321 322 321 322 325 329 331 330 332 335
289 288 287 288 288 289 289 290 291 291 291 291 291 291 292 292 292 292 293 292 292 293 293 294 294 295 295 295 296 296 297 298 299 302 300 301 304 306 308 310 311 312 314 316 321 321 320 320 317 318 318 317 316 316 317 318 318 317 316 316 316 314 315 316 313 314 320 320 320 320 321 319 319 319 319 319 319 321 321 323 323 322 321 326 333
287 286 287 288 288 288 290 290 290 290 291 291 291 291 291 291 291 291 291 291 292 292 293 293 293 294 294 294 295 296 297 297 298 299 299 300 301 303 305 308 310 311 311 312 317 320 319 320 318 317 317 318 317 317 318 317 317 315 315 314 313 314 314 313 313 312 316 320 320 319 320 320 320 318 318 318 318 320 321 322 324 324 322 322 330
287 286 288 287 287 288 289 289 290 290 290 291 291 290 290 290 289 290 290 290 291 291 292 292 293 293 293 294 295 296 296 297 297 298 299 299 299 301 303 307 309 310 310 309 312 319 319 318 317 317 316 315 316 317 317 316 315 314 311 312 311 310 313 312 313 313 312 315 316 317 319 319 319 318 318 318 318 319 320 321 316 322 322 322 325
285 286 286 286 287 288 288 288 289 290 290 289 289 289 288 289 289 289 288 289 290 291 291 292 292 292 293 294 294 295 295 296 297 297 297 297 298 300 302 304 307 309 309 309 311 316 320 319 318 316 315 314 314 314 314 315 312 309 310 310 309 309 309 311 312 313 314 314 314 315 315 317 317 317 318 318 318 319 319 319 320 320 322 323 323
285 285 285 286 286 287 288 288 289 289 289 289 289 289 289 289 288 288 289 289 289 289 290 291 291 292 292 293 293 294 295 296 296 296 296 297 297 298 299 301 304 306 307 308 309 308 315 318 317 315 316 314 313 314 314 314 310 309 307 304 305 307 307 309 311 312 314 314 314 315 315 316 316 316 316 318 318 318 318 319 319 320 321 322 323
284 285 285 286 287 288 288 288 289 289 289 289 289 289 289 289 289 289 289 289 290 290 290 291 291 291 291 292 293 293 294 295 296 296 297 297 297 298 298 300 303 304 305 305 306 306 309 315 316 314 314 314 314 315 314 315 310 311 310 307 303 303 303 306 305 309 312 313 314 315 315 316 316 316 316 317 317 317 317 317 318 318 319 320 321
284 284 285 286 287 288 287 288 288 289 289 289 290 289 289 289 289 289 290 289 288 290 290 290 290 290 290 291 292 293 294 294 295 295 296 297 297 297 298 300 301 302 303 303 304 303 304 307 316 315 315 311 312 312 314 315 313 309 303 305 305 305 301 303 306 303 303 310 313 315 315 316 315 314 316 316 316 316 317 317 318 318 319 319 319
284 284 285 286 287 287 287 288 288 288 288 289 288 288 288 287 288 288 288 287 287 286 286 286 288 288 289 290 291 292 292 293 294 295 296 296 297 298 299 299 299 300 301 302 303 303 303 304 311 315 314 313 311 312 312 315 313 314 309 304 298 298 302 304 305 299 302 307 309 313 312 315 314 314 315 315 315 316 316 316 315 317 317 317 317
284 285 285 286 286 287 287 287 288 288 288 288 287 287 286 285 284 283 282 282 281 282 281 282 283 283 284 287 288 290 291 292 294 295 296 296 297 298 298 298 297 298 300 302 304 303 303 303 305 315 314 315 312 311 310 313 313 313 313 311 309 303 303 303 304 297 298 298 303 307 313 314 314 313 315 315 314 315 314 315 316 315 316 315 315
283 285 285 286 286 287 287 287 287 287 287 287 286 286 284 283 283 282 282 281 280 281 282 283 283 283 284 284 285 287 289 291 292 293 294 296 297 297 297 297 297 298 300 302 303 302 302 301 302 304 313 314 314 311 310 311 311 312 311 309 302 305 308 304 301 301 297 298 298 302 308 313 313 314 313 314 314 314 315 315 315 315 315 314 314
283 285 285 285 286 286 286 286 286 286 286 285 285 284 283 282 282 282 282 281 281 281 282 282 283 283 283 283 284 285 287 289 291 292 294 295 296 296 296 296 297 298 300 301 302 303 302 303 302 302 305 314 313 312 311 312 309 309 309 306 301 307 308 308 307 302 300 298 298 297 298 306 311 313 314 314 314 314 314 314 314 314 314 314 314
284 284 285 285 286 286 286 285 285 285 285 284 284 283 283 282 281 281 280 281 281 282 282 283 282 282 282 282 283 284 286 288 290 291 292 294 295 295 295 296 297 298 299 300 301 302 301 301 301 300 300 306 314 314 313 311 311 310 308 302 302 306 307 306 303 302 300 299 300 301 301 300 307 311 313 314 314 314 314 314 314 313 312 313 314
284 285 285 285 285 285 285 284 283 284 284 283 283 282 281 281 280 280 280 280 281 281 281 281 281 281 281 281 282 283 285 287 288 291 292 294 295 295 295 295 296 298 298 299 300 300 300 301 301 301 301 301 311 313 313 313 312 312 310 307 302 304 306 302 301 301 302 304 301 301 302 301 302 306 308 312 312 313 314 314 312 313 313 313 313
283 284 285 284 284 284 283 283 283 283 283 282 281 281 280 280 280 280 279 278 279 279 279 279 280 280 280 281 282 283 284 286 287 288 291 294 295 295 295 295 296 297 297 298 299 299 300 301 301 301 300 300 302 313 312 313 313 312 310 307 305 305 305 304 303 303 303 298 301 303 302 304 306 303 303 310 311 312 313 313 313 312 313 313 313
Wind_Speed
4 3 0 4 3 4 6 7 8 8 7 7 7 6 5 6 6 4 5 5 6 7 7 7 7 7 8 8 7 7 6 6 5 5 4 4 5 5 6 6 6 6 6 7 7 7 7 7 8 8 7 7 6 5 5 6 8 9 9 11 9 7 8 6 7 7 12 6 8 10 10 11 12 14 13 14 16 14 10 9 8 6 5 11 15
6 5 1 2 4 4 5 7 7 8 6 6 6 7 6 6 7 6 6 6 6 7 8 8 8 8 8 8 8 7 7 7 6 6 6 6 6 6 7 7 8 8 8 9 9 9 9 9 9 9 9 8 7 5 6 6 7 9 11 11 9 8 7 7 7 8 8 6 6 8 6 11 11 12 15 16 16 13 9 9 9 5 4 14 15
5 4 1 1 4 3 4 6 6 7 6 5 5 6 6 5 6 6 6 7 7 7 9 9 10 10 9 8 8 8 8 8 8 7 8 7 8 8 8 9 9 8 10 10 10 11 11 10 11 10 10 9 8 5 7 7 8 8 11 11 13 9 8 9 8 9 6 6 7 9 9 9 12 9 13 16 16 12 10 10 9 9 9 16 13
6 4 2 1 3 3 3 2 3 4 4 4 3 2 3 5 6 7 7 8 8 8 10 10 10 12 11 10 10 9 9 9 9 9 9 9 8 8 7 9 10 9 9 10 11 12 11 11 11 11 11 8 6 6 8 8 7 9 12 13 14 12 9 9 11 9 8 7 7 8 6 6 10 15 14 17 14 11 11 10 9 9 15 15 15
8 5 2 2 1 2 3 3 4 4 1 2 3 3 4 4 5 6 7 9 9 10 11 11 10 11 12 9 8 10 10 10 10 10 9 9 9 8 7 7 9 10 11 11 12 12 12 12 12 12 11 9 7 6 8 8 9 10 12 14 14 14 11 11 10 8 8 8 9 7 5 4 5 13 15 16 12 9 11 11 10 13 9 13 15
8 7 2 1 2 1 3 2 1 4 4 2 2 5 6 5 6 7 7 9 10 11 11 11 11 12 11 12 10 11 10 11 11 11 10 10 10 8 6 7 11 13 12 12 13 12 11 12 12 13 12 10 7 7 9 9 10 11 12 13 14 13 13 12 10 8 9 8 8 5 6 6 5 7 17 14 11 9 12 11 14 12 14 14 16
8 9 7 4 2 3 2 1 1 2 4 5 5 5 6 7 8 8 8 10 9 11 10 11 11 12 12 10 9 13 12 12 11 12 12 12 11 9 8 8 10 11 12 12 12 12 11 11 12 13 13 11 8 7 10 11 11 13 13 13 14 14 14 12 11 9 8 5 4 4 5 7 6 3 16 13 11 12 14 16 16 15 13 17 17
10 9 9 8 8 6 5 5 4 4 5 5 7 8 8 8 8 9 9 10 10 10 12 13 12 10 13 12 12 13 12 12 12 12 13 13 12 11 9 9 10 11 12 12 12 11 11 11 11 11 12 11 9 9 11 12 12 14 14 14 16 14 14 14 12 11 10 4 3 4 5 5 7 6 14 13 13 15 16 17 18 18 17 16 14
12 9 8 7 6 10 9 8 9 10 9 9 9 9 9 9 9 9 10 10 11 11 12 12 13 12 10 11 12 14 12 14 13 13 13 12 11 10 11 11 11 11 11 13 13 13 12 12 12 11 11 12 10 9 11 13 13 14 14 15 17 14 14 12 11 14 9 6 5 4 5 5 6 7 13 14 16 17 18 15 15 16 18 14 13
10 11 11 8 7 11 10 8 9 10 10 12 13 13 12 11 11 11 11 12 12 11 11 10 13 14 11 10 12 16 13 13 14 12 11 13 11 11 11 7 5 7 10 12 13 14 13 13 13 13 12 12 10 9 12 13 14 15 14 16 17 18 15 14 10 8 8 7 5 5 5 7 5 6 13 16 17 18 16 13 10 13 11 14 13
10 8 7 8 9 12 11 10 8 9 9 10 11 13 15 14 13 13 12 13 13 13 12 11 12 11 13 14 14 13 12 13 12 11 12 9 10 9 6 7 8 9 10 11 11 12 13 14 13 13 14 13 10 10 13 13 15 15 15 17 18 18 16 13 12 6 6 7 5 4 6 10 5 5 14 18 18 15 12 11 14 13 15 16 16
12 11 9 9 11 12 12 7 10 10 10 10 11 12 13 14 15 15 14 13 14 15 14 13 12 12 12 13 14 11 13 13 13 13 10 9 7 8 9 9 10 11 12 12 13 13 13 13 13 12 11 12 13 11 14 15 15 15 16 18 18 16 16 15 11 7 5 5 5 5 5 7 7 7 17 18 21 21 14 11 14 17 18 17 19
13 12 11 10 11 18 18 14 9 10 10 11 12 12 12 13 14 16 16 16 15 14 15 15 13 13 14 13 10 12 11 11 9 15 13 10 9 10 10 12 12 12 13 14 14 14 15 15 14 14 11 11 11 11 14 15 15 14 15 19 19 17 15 16 9 6 7 6 5 5 6 6 6 11 16 19 20 19 18 19 17 18 18 18 21
11 12 11 11 11 16 20 22 20 15 12 12 12 11 12 12 13 13 15 16 16 16 16 16 16 16 14 15 14 14 12 11 12 13 13 12 13 11 13 13 13 13 14 15 15 16 16 16 15 13 11 10 10 11 15 15 15 16 15 17 19 18 16 12 10 10 9 7 5 4 7 7 6 12 17 20 19 19 18 17 19 19 19 20 20
12 12 11 11 11 11 17 20 21 22 18 15 14 12 12 12 12 13 13 14 16 16 17 17 17 16 16 14 14 15 13 12 13 13 12 11 14 13 11 12 16 15 14 15 15 15 16 16 15 12 11 9 9 10 14 16 15 15 16 17 17 17 17 9 10 9 9 11 8 5 7 7 11 12 17 20 22 20 19 18 19 19 19 18 18
10 12 10 11 11 11 11 15 19 21 21 19 15 12 12 13 12 13 14 15 15 16 16 17 18 17 16 18 16 15 15 15 13 13 12 12 11 12 10 16 17 17 15 15 15 15 16 16 14 11 9 9 10 10 13 17 16 16 18 18 17 16 17 12 10 9 11 10 8 6 7 8 15 15 16 19 22 21 22 22 22 22 21 19 19
9 13 14 12 11 12 12 11 15 20 19 20 19 19 17 12 12 12 12 14 15 15 16 17 16 17 18 16 17 15 13 13 13 15 12 11 12 13 14 17 18 16 15 15 15 15 15 15 12 10 10 11 11 11 14 17 18 17 16 19 18 18 17 15 10 9 10 11 9 6 7 8 14 18 18 19 21 22 17 17 21 23 22 22 20
9 11 14 12 12 12 12 11 12 14 15 15 16 18 19 20 15 12 11 12 13 13 14 14 16 15 16 15 14 14 13 12 13 14 14 14 14 14 15 18 18 17 15 15 15 15 15 13 11 11 11 11 11 12 15 17 18 16 16 19 20 19 18 18 10 10 10 11 10 6 6 8 15 17 20 19 18 21 18 18 19 21 22 20 17
9 11 12 13 13 12 12 11 11 13 14 12 12 14 19 20 20 18 16 15 13 16 16 14 14 14 15 14 14 14 14 13 14 14 15 15 15 16 16 16 17 18 16 15 16 15 14 12 12 11 12 12 11 12 16 18 18 16 16 17 20 20 21 16 10 9 10 9 8 7 7 12 13 13 18 19 19 21 19 18 22 22 23 20 16
8 10 11 12 10 11 12 11 11 13 12 12 12 13 16 19 19 19 19 17 16 16 16 16 15 13 13 14 14 13 12 12 14 13 15 16 16 13 12 17 18 17 16 16 15 15 14 13 12 12 12 13 12 13 15 17 17 16 18 18 18 20 15 11 11 9 8 8 7 6 8 15 16 18 21 22 21 20 20 19 23 19 22 23 23
8 9 11 11 11 11 13 12 11 14 14 12 11 11 13 17 15 17 18 18 18 16 16 15 14 13 12 12 13 11 9 9 11 10 13 12 14 16 16 18 18 17 16 16 16 15 14 14 14 13 13 14 13 14 15 16 17 17 18 19 19 13 10 11 12 9 7 7 8 7 12 15 18 22 22 23 24 23 21 20 21 21 22 23 26
9 10 11 13 12 11 11 14 10 13 14 11 9 9 10 14 12 12 12 14 13 15 11 10 10 8 12 10 8 8 8 8 9 11 10 11 12 16 18 19 18 17 16 17 17 17 15 14 14 14 14 14 14 9 9 14 16 16 18 18 14 7 7 11 11 9 8 6 7 9 15 16 18 22 25 24 24 24 24 23 25 23 24 26 27
9 8 9 11 10 10 10 14 12 11 13 12 10 9 11 10 11 12 10 13 13 12 11 11 9 9 8 8 8 7 8 8 9 10 10 13 13 15 17 18 18 18 17 17 17 17 16 15 15 14 13 14 10 7 7 8 9 17 16 12 7 10 11 11 11 9 8 7 7 12 15 17 20 24 25 26 27 27 26 25 25 24 23 23 27
6 6 6 6 9 9 9 10 12 10 13 11 11 11 11 10 10 11 11 10 10 10 11 11 10 10 9 8 8 8 8 8 11 15 14 11 11 14 17 19 20 20 20 15 15 15 16 16 14 14 11 7 6 7 7 7 7 7 9 8 9 11 11 11 9 10 8 8 8 13 15 19 22 24 25 26 26 25 25 27 24 23 24 26 26
5 5 6 9 10 10 8 9 12 7 11 10 11 11 10 10 11 11 10 10 11 11 10 10 10 11 11 9 9 8 8 8 9 9 9 9 9 9 9 10 10 11 15 11 9 9 10 8 8 9 6 6 7 7 7 8 7 8 8 9 11 10 8 9 9 9 8 8 9 14 17 19 19 24 25 25 26 27 27 26 26 27 26 26 25
5 7 7 7 9 9 9 8 11 8 11 9 10 9 9 9 10 10 11 11 11 11 11 10 10 11 11 11 11 10 9 9 8 9 10 10 9 9 9 9 9 10 10 9 9 9 8 8 8 8 7 6 7 7 8 8 8 8 9 9 10 10 9 10 8 9 8 7 8 15 17 17 17 22 24 25 25 27 27 28 28 28 28 29 29
5 5 5 5 7 7 8 8 10 7 10 9 9 8 7 9 9 9 10 10 10 11 11 12 13 13 11 10 10 11 11 9 10 9 9 9 10 9 8 8 10 10 9 9 10 9 9 8 8 8 8 7 7 7 8 8 9 10 9 10 10 9 9 9 8 7 8 8 8 18 19 19 19 22 24 25 28 29 28 29 30 28 30 31 29
5 5 6 5 7 7 8 7 9 8 9 9 8 8 6 9 9 9 9 10 10 10 11 11 12 12 12 11 10 10 11 11 10 10 10 9 9 10 9 8 8 9 9 9 10 9 9 9 9 8 9 8 9 8 8 9 9 10 10 10 10 8 6 8 7 7 5 6 8 15 18 20 20 22 24 25 26 27 27 28 28 30 28 29 31
7 5 6 5 7 6 7 8 8 9 9 9 9 7 8 8 8 9 9 9 7 8 10 11 11 11 12 12 12 12 11 11 12 11 10 11 10 9 8 9 7 8 9 9 10 9 9 9 10 10 9 8 8 9 9 9 9 10 11 12 11 10 10 9 9 8 9 9 7 11 18 19 19 19 21 24 27 25 29 31 32 30 31 31 31
6 5 5 5 6 6 6 8 8 10 10 10 8 9 9 9 9 9 9 8 7 8 8 7 8 10 11 12 14 12 12 11 12 12 12 12 11 10 9 8 9 9 8 8 7 9 10 9 9 9 9 9 9 10 9 9 10 11 12 13 12 12 11 11 11 10 9 8 9 10 18 19 20 18 20 23 25 27 31 31 35 32 31 32 30
4 6 5 5 6 6 6 7 7 9 9 11 10 11 11 11 11 10 9 10 10 9 8 7 7 8 10 12 12 13 12 12 12 12 12 13 12 11 10 10 9 8 8 9 9 10 10 11 11 11 10 10 10 9 10 10 10 11 12 13 13 11 11 10 9 9 9 9 8 9 13 19 18 19 18 18 22 27 28 29 32 32 31 29 30
5 6 5 4 5 6 6 7 8 10 11 11 10 11 12 11 12 11 12 12 12 11 10 9 8 8 8 10 11 11 12 12 13 12 12 12 12 12 12 11 11 10 10 11 9 9 10 11 11 11 10 10 9 9 10 9 10 11 11 13 12 12 12 10 10 10 9 9 9 9 9 11 14 15 16 18 20 19 24 28 29 30 33 32 31
4 4 4 4 5 8 7 7 7 9 12 13 11 10 11 11 11 11 11 11 12 12 12 11 10 9 8 9 10 12 11 10 12 12 11 11 12 12 12 13 12 10 9 11 12 10 10 9 9 8 8 8 9 9 10 9 10 11 11 12 12 13 12 12 11 10 10 11 10 10 9 9 8 11 13 18 18 23 26 28 30 30 32 34 34
4 4 4 5 7 7 6 7 9 11 13 12 11 11 12 12 12 12 12 12 10 11 12 12 11 10 9 9 10 11 11 11 11 11 12 12 12 12 12 12 12 12 10 9 10 10 9 10 10 9 9 10 10 10 10 10 9 8 9 12 11 13 12 12 12 11 11 10 9 9 9 8 7 5 9 14 17 27 28 27 28 29 31 33 33
4 5 6 6 11 11 9 8 10 12 13 12 12 12 12 12 12 13 14 14 13 11 11 11 11 11 10 10 10 11 11 11 10 11 12 11 11 12 12 11 12 12 12 10 10 10 12 13 11 12 11 11 11 10 11 11 11 11 9 7 13 11 12 12 12 11 11 11 9 9 9 8 8 7 6 7 8 23 28 31 33 28 29 28 29
6 7 7 8 10 9 8 8 11 13 13 12 12 12 12 12 12 12 12 14 13 13 11 11 11 11 11 11 10 12 12 10 10 10 10 10 11 12 12 11 12 12 12 13 11 11 10 13 12 13 11 10 11 11 10 11 11 11 9 7 7 14 13 13 13 11 10 9 9 8 8 7 9 7 7 4 2 8 16 20 25 29 27 27 31
6 7 7 8 9 9 9 10 12 12 11 12 12 11 12 13 13 13 13 13 13 12 12 11 11 11 11 11 12 13 12 11 10 10 9 10 11 12 12 13 12 11 13 14 14 11 9 9 10 11 13 12 12 13 12 11 11 11 9 10 5 9 14 12 12 12 11 12 9 8 9 7 9 10 6 6 5 2 13 20 18 26 27 27 27
7 7 6 7 8 7 7 8 11 11 12 13 13 12 12 13 12 12 12 12 13 12 12 11 10 10 10 12 14 14 12 11 11 10 8 9 9 11 13 14 13 11 12 14 14 11 12 12 11 11 11 12 12 13 13 11 11 10 9 8 11 5 6 10 6 5 10 12 11 10 10 8 8 8 7 6 5 7 4 12 19 14 19 23 26
5 5 6 7 6 7 8 11 12 13 13 13 13 12 13 14 13 14 14 14 12 12 12 12 11 11 11 12 14 13 12 12 11 10 8 8 8 10 12 15 13 11 11 13 15 15 12 14 15 13 13 14 15 14 14 14 12 11 10 9 6 11 8 6 7 4 5 11 12 10 9 9 9 8 8 7 5 7 6 7 8 9 9 15 22
6 5 6 7 7 9 8 10 10 12 11 11 11 12 13 14 16 16 16 14 13 13 13 12 12 12 12 13 13 12 12 13 13 10 7 7 8 9 11 13 14 12 12 13 14 14 13 14 15 17 15 10 9 12 12 12 10 10 8 4 3 3 10 10 8 5 2 5 7 6 9 9 8 9 9 9 6 5 7 6 4 8 9 12 21
5 6 8 7 7 9 10 12 10 10 11 13 13 14 14 15 16 16 16 15 15 15 14 12 11 11 13 14 14 13 13 14 13 10 8 7 7 8 10 12 13 13 12 12 13 17 14 15 17 16 18 15 12 9 10 14 13 6 6 8 6 4 1 8 11 7 5 4 4 6 4 8 6 7 9 8 8 8 8 6 7 7 9 9 13
8 7 7 7 6 8 9 11 9 11 12 13 14 14 13 13 15 16 16 17 16 14 16 14 13 13 14 15 15 14 14 13 12 9 8 7 8 8 8 11 12 13 14 14 14 15 19 16 13 13 14 17 11 12 12 13 12 16 12 5 6 5 3 3 7 8 8 7 5 7 5 6 8 6 6 8 9 9 8 8 8 8 8 10 9
6 6 6 6 8 9 10 9 10 13 13 14 13 14 15 16 16 17 16 15 15 15 16 17 16 16 15 14 15 15 14 12 10 10 9 9 8 8 9 9 11 13 14 15 14 14 15 16 16 13 13 11 12 13 16 18 13 11 11 14 9 8 1 4 2 5 6 8 7 7 8 7 8 8 8 8 8 9 9 8 9 8 8 8 9
5 5 6 8 8 9 9 11 13 14 14 13 14 14 17 19 18 17 16 14 16 17 18 16 15 16 17 15 14 13 12 12 12 12 12 10 8 8 8 8 10 11 13 14 14 14 14 17 16 19 18 14 8 13 17 18 14 17 10 10 11 12 13 10 11 3 1 5 8 8 8 9 8 8 8 10 10 9 9 9 10 10 10 9 8
5 6 6 9 8 10 11 13 14 14 13 14 15 16 18 18 16 16 15 16 15 15 16 16 15 15 18 16 14 13 14 14 14 13 12 11 9 8 8 8 9 11 12 13 13 11 12 16 21 19 17 20 17 13 14 16 17 19 17 9 3 4 11 13 13 2 2 6 6 7 8 10 11 10 9 9 9 10 10 10 8 7 10 10 10
6 5 6 7 7 9 12 14 13 13 13 13 15 15 15 17 18 18 19 17 19 18 16 17 17 18 17 18 20 18 16 14 12 12 12 11 12 9 8 8 8 9 11 12 12 10 11 14 17 15 15 14 15 14 16 14 15 17 15 20 21 16 14 12 15 8 0 1 4 6 9 11 11 10 9 11 12 11 11 11 10 10 10 9 10
5 5 5 6 7 10 11 13 13 12 12 13 15 14 16 17 19 18 16 16 18 18 16 15 14 16 16 19 19 19 19 18 17 14 13 12 11 9 8 8 8 8 10 11 11 11 10 12 15 16 18 19 18 17 20 18 11 14 11 6 6 2 17 20 14 10 10 3 3 5 9 11 11 13 12 12 13 12 10 12 12 11 11 10 9
5 5 5 5 8 11 12 12 11 12 12 13 14 14 15 17 20 19 17 17 16 20 20 16 14 14 16 17 18 18 19 18 18 15 13 12 12 12 9 8 8 8 8 10 10 9 9 10 11 14 17 16 17 20 21 20 18 15 13 8 3 10 17 18 21 24 22 17 8 0 1 7 10 11 12 12 13 15 13 11 12 11 10 10 10
5 5 5 7 9 11 11 11 12 12 12 14 14 14 15 17 17 15 17 17 18 17 15 15 15 15 18 16 18 20 18 17 17 17 15 13 12 11 9 7 7 8 7 9 9 8 10 12 13 11 16 18 14 13 17 19 19 18 14 6 8 11 14 11 11 9 12 14 14 15 12 3 8 11 12 12 11 13 15 14 13 13 10 10 10
5 5 6 7 9 10 11 11 12 12 12 14 14 15 16 15 15 16 19 19 17 16 15 17 16 14 15 16 16 16 15 16 16 14 13 12 12 11 9 8 8 8 7 8 11 9 8 11 12 11 13 16 19 18 18 18 19 17 18 16 12 12 13 9 9 11 12 21 18 14 13 15 15 11 9 12 13 11 12 13 12 12 12 10 10
5 6 7 8 10 10 11 13 13 12 13 13 14 16 15 14 14 16 19 20 21 21 19 18 15 15 15 15 14 15 16 15 14 14 14 13 12 12 10 8 7 8 7 7 8 9 6 9 10 11 13 16 17 19 18 20 18 19 19 15 17 19 19 18 19 17 15 9 12 16 13 12 15 13 8 9 13 12 11 12 13 11 13 11 9
Wind_Direction
318 5 96 146 155 169 184 188 186 181 180 182 193 184 199 214 219 223 227 235 249 264 255 240 232 214 209 207 212 223 238 241 241 250 259 270 275 282 288 294 291 291 287 283 281 276 271 267 266 269 266 265 261 236 221 215 209 199 188 205 214 191 196 198 233 242 240 153 138 141 156 144 151 154 149 141 131 129 124 123 127 135 143 136 139
307 339 155 140 147 166 175 183 193 190 187 192 192 193 199 216 225 212 225 240 244 246 257 246 242 239 231 222 217 221 230 238 242 249 249 253 261 268 273 279 286 290 290 291 287 283 278 272 268 270 269 265 264 244 214 216 219 209 181 201 201 205 202 207 222 230 239 127 131 121 125 143 147 149 149 141 136 128 121 126 128 131 136 137 137
310 359 65 137 125 145 161 180 187 191 202 196 198 203 201 213 238 248 231 238 248 251 254 255 249 243 240 238 234 228 225 233 235 239 248 254 254 256 258 265 272 274 282 285 287 286 282 276 271 268 270 268 264 239 205 213 219 209 190 193 197 205 206 215 202 227 194 128 115 126 144 153 141 166 157 143 139 131 127 130 134 134 142 137 134
341 337 99 131 131 111 132 64 197 205 214 218 208 191 209 217 223 243 248 253 257 260 256 251 252 251 243 241 246 240 237 234 236 235 239 252 259 264 252 247 258 265 274 278 281 282 281 280 276 270 266 266 261 257 201 208 213 205 199 197 196 198 203 216 195 212 149 145 134 125 146 164 160 166 165 142 139 131 135 138 142 144 141 142 137
348 326 93 121 132 153 130 83 32 358 340 187 172 196 234 242 242 239 245 249 255 258 257 252 252 263 274 259 254 251 244 244 240 246 249 254 265 253 249 243 235 241 268 272 276 279 279 280 276 272 267 262 252 249 201 203 203 212 202 196 197 195 191 210 197 194 155 156 151 139 144 151 154 151 151 144 139 135 143 144 148 139 136 144 136
352 322 33 126 155 191 170 101 73 10 341 281 231 222 223 234 244 245 249 251 254 257 257 254 259 253 243 250 246 245 244 248 249 252 256 249 252 250 261 272 272 275 277 272 273 274 276 276 276 271 265 261 249 234 202 202 205 207 204 201 199 195 191 200 186 198 164 166 161 153 153 153 149 157 157 148 140 143 146 139 123 141 156 155 140
4 355 340 26 355 151 167 121 9 356 341 318 273 254 248 239 234 238 246 256 263 268 266 264 260 273 265 247 253 254 243 243 246 250 259 262 270 261 247 247 263 269 272 269 267 268 270 270 271 271 267 263 254 229 210 204 204 208 206 206 203 193 192 189 186 187 160 176 177 167 169 154 151 150 161 153 146 148 150 142 146 157 167 148 140
13 10 23 20 18 30 28 5 346 339 326 317 302 292 282 262 252 252 245 244 250 257 264 264 262 244 258 265 249 252 250 252 247 247 249 259 259 264 265 259 261 261 262 261 259 261 265 263 261 261 264 261 257 241 210 204 206 208 211 212 208 194 196 190 187 168 171 179 201 174 173 167 155 157 169 159 156 154 155 153 158 156 148 144 141
14 14 20 26 23 37 30 16 3 344 328 315 301 296 305 310 299 272 264 260 248 244 250 258 267 266 259 257 272 265 249 250 255 262 265 260 258 258 263 260 260 261 261 264 265 263 260 260 255 252 251 254 252 239 211 204 203 206 211 211 205 200 196 195 186 169 171 185 198 181 174 174 166 160 170 166 164 161 158 153 145 142 150 148 142
13 14 14 13 10 22 27 25 7 354 341 332 323 310 301 304 302 299 284 274 270 261 252 248 256 263 254 252 249 255 268 274 273 268 261 274 268 257 256 265 273 264 259 260 263 268 269 262 263 260 250 242 241 223 213 204 202 209 205 209 206 197 189 195 179 187 177 180 202 179 176 178 172 169 169 168 168 166 157 154 148 152 161 147 148
16 7 7 6 0 2 5 6 357 346 337 327 320 319 317 309 304 300 297 291 280 273 268 260 258 265 274 276 270 269 270 265 263 264 265 259 260 250 212 230 245 251 256 258 260 264 267 274 270 266 266 261 243 212 209 204 208 214 212 205 205 196 189 187 172 191 195 185 189 189 181 174 172 176 175 165 163 169 154 153 151 163 153 153 152
15 9 3 360 353 350 353 357 347 338 332 324 321 317 313 311 307 301 298 295 295 292 284 277 269 272 266 257 259 275 268 266 267 261 254 255 225 215 227 225 236 246 252 258 258 259 263 269 273 268 263 263 266 221 205 203 206 210 216 210 201 196 192 181 176 186 215 202 192 192 178 174 177 185 179 172 167 166 157 158 163 162 157 157 151
24 20 16 13 11 6 2 350 332 335 328 327 327 324 318 313 311 308 302 298 294 292 293 288 273 256 260 266 262 252 259 267 278 286 274 256 230 227 227 232 232 239 249 258 261 260 260 263 268 271 264 263 268 252 210 207 210 211 213 211 202 197 194 183 182 183 201 204 203 199 183 180 183 187 184 179 171 167 166 162 169 166 163 160 155
29 23 21 19 16 14 13 13 5 345 329 324 324 320 316 313 309 307 306 304 304 302 295 294 291 282 270 269 270 269 258 258 265 259 259 260 248 237 242 245 238 241 246 251 257 260 261 260 262 268 270 258 243 244 237 210 212 214 213 212 202 198 194 185 177 181 199 211 221 203 188 185 187 188 185 181 168 171 177 167 170 172 167 163 159
34 26 21 21 17 14 13 13 11 8 358 340 326 319 316 313 311 305 302 301 301 299 298 297 294 290 285 273 265 264 265 257 251 255 260 247 252 247 250 264 264 256 252 253 254 255 257 258 260 264 266 257 240 235 230 232 214 210 213 210 199 197 188 186 192 186 186 206 208 200 198 193 188 183 190 185 175 175 179 172 178 174 169 165 161
35 28 21 21 18 15 13 6 9 7 4 357 351 333 317 314 309 309 309 303 298 298 297 298 296 292 286 282 280 276 273 269 265 260 255 247 244 243 236 243 247 249 250 253 253 251 250 254 257 260 260 258 250 235 218 231 224 208 204 207 201 192 184 188 194 189 194 197 208 200 196 191 191 186 191 191 181 178 185 183 177 177 170 165 163
29 26 24 18 16 16 13 9 7 5 3 359 354 352 348 326 311 312 309 308 303 297 296 295 297 297 294 292 286 285 281 274 269 265 248 243 240 236 235 240 241 241 242 246 251 249 246 248 253 254 253 254 248 238 214 221 227 212 207 205 201 194 188 193 193 194 195 192 201 202 188 187 189 188 189 193 189 182 185 194 187 175 169 169 170
27 28 25 18 17 14 11 11 10 8 2 360 358 354 351 349 338 322 314 308 304 299 293 292 292 290 291 291 287 283 279 275 269 266 258 251 247 241 236 237 240 239 237 240 244 245 242 240 244 250 249 247 241 236 216 217 220 214 207 208 206 197 190 194 197 197 197 193 193 189 181 183 182 187 188 189 189 183 184 190 202 178 170 165 168
25 28 25 20 17 14 12 9 11 9 3 1 357 353 353 352 347 343 334 323 311 308 302 294 286 285 285 285 283 282 276 270 266 259 254 251 249 246 244 239 239 240 236 237 238 239 237 235 237 244 249 245 238 231 213 212 217 209 204 207 205 199 193 190 202 197 194 192 186 178 183 172 151 156 185 193 186 185 182 194 198 181 169 159 165
23 24 22 19 15 17 14 10 9 10 4 358 356 353 351 352 352 348 342 336 325 313 304 299 295 286 283 281 279 276 278 274 263 257 251 246 245 243 244 248 244 239 239 238 237 235 234 233 236 239 245 246 236 225 214 211 211 206 204 202 202 196 197 191 197 203 195 190 175 174 183 174 166 183 189 182 181 192 190 195 198 172 168 163 172
19 24 20 13 10 15 14 12 8 10 4 359 354 352 349 350 351 348 345 341 336 326 311 303 299 297 285 277 276 274 267 269 269 258 250 245 240 240 241 241 239 236 235 237 238 237 234 230 234 235 240 243 235 223 215 212 209 205 204 201 198 200 199 193 194 197 196 184 177 182 189 184 185 187 190 176 185 182 184 193 190 175 171 168 169
10 12 14 10 8 9 10 10 5 9 5 360 355 350 348 349 347 347 345 344 340 336 326 311 300 292 291 285 276 271 266 263 262 263 255 247 240 235 236 238 239 238 236 234 235 236 235 231 232 234 236 236 230 223 217 213 211 209 204 201 198 190 201 200 195 192 187 185 178 187 190 190 190 191 189 182 181 186 184 184 186 178 174 174 168
14 9 8 8 6 5 8 8 1 5 6 1 353 350 350 348 346 344 342 342 340 338 335 327 314 303 296 289 282 273 268 262 258 253 252 247 241 232 232 237 237 237 236 233 232 232 234 236 235 235 233 231 225 215 210 210 213 210 201 198 179 194 196 200 193 191 186 181 187 186 187 190 185 197 193 185 183 184 181 185 180 178 172 178 167
359 3 350 359 6 7 3 8 359 0 6 359 353 350 351 350 346 344 343 339 337 336 335 331 327 320 313 303 294 282 273 269 263 257 253 254 248 241 236 234 235 235 233 234 235 233 232 234 235 236 236 229 214 209 206 206 207 200 199 191 198 198 195 201 194 190 186 181 187 188 187 189 191 201 198 185 189 186 179 180 181 177 182 174 168
345 333 1 6 2 2 2 5 0 358 4 357 353 348 346 348 345 343 343 341 337 335 330 328 325 323 321 316 307 301 293 282 274 268 256 247 248 247 240 237 233 234 231 232 227 227 225 224 232 234 230 222 212 207 200 204 197 194 193 192 200 201 201 202 196 188 190 185 184 187 188 195 195 198 197 189 183 183 180 177 187 179 177 175 173
348 12 356 360 2 359 359 6 356 358 360 352 349 339 342 348 344 341 339 339 340 333 330 331 328 325 323 318 315 310 306 299 292 281 275 268 257 246 242 232 226 226 218 223 221 220 215 212 218 222 223 220 214 204 202 198 193 192 193 193 201 198 197 199 200 190 189 187 187 182 190 195 199 200 196 192 187 183 181 178 180 175 173 173 168
345 358 347 357 353 0 357 5 352 356 353 344 343 341 343 343 338 336 339 336 337 336 338 335 329 322 320 319 319 316 312 308 304 300 290 282 273 273 260 243 231 224 216 215 216 214 213 211 210 214 214 214 215 205 200 200 190 191 191 191 197 200 198 203 188 193 187 190 191 189 190 192 198 198 195 193 188 182 180 180 176 174 179 171 166
354 347 355 347 350 354 355 2 353 357 349 344 340 336 335 339 335 334 335 331 333 339 336 330 324 326 325 323 319 317 315 314 310 306 302 294 283 273 270 268 259 249 222 212 213 210 211 211 209 207 206 207 210 205 199 201 195 188 189 190 191 189 202 199 195 189 196 201 189 194 193 196 199 196 196 196 191 183 178 181 180 178 174 177 162
355 337 343 350 348 344 354 358 357 355 350 342 340 332 332 333 332 332 329 325 329 334 328 323 327 329 328 328 331 325 321 314 312 311 307 297 291 280 264 256 256 254 244 222 211 209 211 209 208 204 202 203 202 202 200 200 198 192 190 189 187 187 193 204 191 193 186 191 191 197 197 197 202 198 193 196 189 183 190 185 179 175 174 172 166
346 324 345 345 349 345 352 356 357 354 347 345 341 338 339 334 333 330 325 322 318 320 316 315 324 329 328 329 326 322 320 316 315 313 310 304 296 286 276 269 258 259 261 257 230 214 209 206 205 203 200 202 200 197 194 199 200 197 192 190 187 190 191 195 195 191 183 184 190 191 197 197 201 201 194 194 190 188 193 185 177 176 171 168 165
337 338 339 345 346 345 346 351 354 353 350 348 342 339 338 336 334 330 328 326 320 319 318 314 319 322 321 322 320 322 320 320 319 318 315 313 307 298 284 270 261 252 254 247 237 226 213 203 199 198 200 200 202 192 193 196 200 199 195 192 188 185 190 194 196 188 182 184 184 187 193 195 197 195 194 196 190 190 195 185 168 166 165 166 164
346 338 330 327 342 343 341 346 352 351 349 345 341 338 338 335 332 332 331 328 326 322 319 317 317 316 318 316 317 317 318 316 316 313 310 309 307 304 297 281 265 257 245 250 244 240 221 210 203 202 199 197 198 191 192 194 199 200 193 196 187 185 186 188 189 184 180 179 179 183 182 187 191 191 190 186 196 196 193 178 173 164 164 165 162
308 309 311 325 341 351 349 344 346 349 348 343 340 335 333 333 332 329 326 325 324 322 319 318 314 314 312 312 311 312 312 313 311 307 309 309 307 305 300 290 276 262 249 246 249 239 229 207 205 193 191 194 192 194 189 193 196 198 195 195 187 187 182 181 181 180 179 177 174 179 175 173 172 166 181 188 199 190 183 180 170 167 162 162 163
314 315 327 344 346 351 346 345 348 347 343 338 335 335 335 332 329 326 323 321 319 317 315 312 309 308 308 308 309 307 307 308 306 312 314 309 307 304 301 300 289 273 259 247 244 247 235 210 192 186 190 187 191 188 187 191 194 191 202 190 193 185 176 178 178 177 174 172 171 174 163 158 156 156 179 191 204 184 183 173 169 168 166 163 161
333 339 351 345 357 354 352 346 342 341 338 335 332 330 329 327 325 324 323 321 316 313 309 307 305 306 307 305 305 304 301 300 307 311 308 307 308 307 304 301 299 288 268 248 239 238 228 216 190 188 185 188 188 185 185 188 184 190 189 209 187 180 175 173 171 172 176 165 162 162 153 157 150 155 178 177 205 190 180 174 159 159 162 161 160
347 349 353 357 355 350 347 344 340 338 337 332 328 325 323 321 318 314 311 312 310 309 308 304 303 302 302 301 301 300 298 296 301 305 301 309 310 306 303 300 299 296 280 262 247 244 238 222 193 179 177 189 182 183 186 183 186 188 183 183 220 175 176 169 167 166 165 159 154 153 148 151 144 160 150 125 157 191 171 168 160 155 162 161 161
346 352 353 352 352 351 350 344 336 330 325 323 321 321 321 319 317 312 308 306 304 303 303 303 299 299 299 300 301 297 291 292 296 297 300 305 307 304 303 301 300 297 292 273 252 239 233 223 205 186 182 178 184 180 181 179 181 182 177 161 175 197 165 163 165 163 166 151 147 148 143 149 146 149 141 143 139 151 176 167 171 160 163 163 164
348 348 346 351 348 345 339 333 330 330 330 328 326 323 319 316 314 311 306 304 302 301 299 296 293 293 295 295 296 293 287 287 291 292 291 295 297 302 305 301 299 299 296 287 262 236 219 216 215 199 191 178 181 179 178 174 173 174 173 170 160 164 145 138 133 186 157 148 147 153 148 148 145 136 138 138 157 137 148 154 152 160 164 165 167
334 331 345 346 346 338 339 337 334 330 327 326 323 321 320 318 314 313 310 307 303 299 295 295 296 293 290 291 290 287 285 286 288 288 287 292 298 301 302 301 299 296 296 295 275 245 224 215 208 200 195 187 180 181 176 170 170 172 173 169 204 153 138 114 123 148 170 151 149 153 146 150 144 136 146 140 146 139 149 141 147 148 154 166 161
329 339 345 349 344 339 339 333 329 326 325 327 328 324 323 323 321 319 314 310 306 301 298 295 295 294 292 291 287 284 286 288 286 279 274 285 297 301 303 302 299 297 298 298 290 253 224 220 218 198 193 197 194 180 169 156 158 160 143 127 140 174 153 145 134 122 66 106 126 153 153 150 146 148 148 142 144 138 139 143 134 149 153 174 163
333 345 348 343 339 333 334 331 329 332 337 334 331 329 327 323 319 316 311 308 309 308 301 296 292 291 294 294 289 283 283 285 282 275 271 281 286 294 299 300 299 296 293 289 292 283 249 223 208 198 189 188 184 170 156 148 142 124 118 119 93 53 338 166 150 140 138 123 121 125 135 138 138 147 151 145 146 149 139 148 149 147 154 158 157
339 346 341 328 326 329 333 330 336 338 336 332 326 323 322 318 314 312 310 307 309 309 306 304 300 297 296 293 288 283 281 279 276 269 271 273 287 292 293 297 299 295 291 289 287 291 277 236 213 203 195 178 182 168 158 145 165 159 154 138 94 75 72 85 147 158 149 143 141 134 140 141 146 148 142 142 150 146 148 150 149 154 151 153 157
323 328 319 330 334 338 338 340 339 336 332 328 325 321 319 317 315 307 305 304 302 305 302 299 301 299 298 294 288 282 279 276 273 271 272 275 272 281 286 290 292 294 294 294 290 289 294 264 219 203 185 198 178 169 166 170 161 167 156 143 152 127 60 97 47 158 169 145 150 153 152 153 155 153 152 149 151 145 147 151 151 152 152 149 149
327 327 340 340 337 342 346 341 337 332 326 324 323 322 321 316 310 303 304 306 310 310 305 304 303 301 299 296 288 281 276 274 276 277 272 268 262 267 277 282 287 291 293 291 287 284 284 288 257 212 186 178 190 179 179 182 164 145 162 176 166 154 152 176 162 167 191 153 155 161 158 161 158 158 157 158 157 149 152 151 158 157 155 149 149
331 338 341 344 345 347 345 340 333 329 325 326 331 331 324 320 321 321 320 315 308 307 310 307 312 317 313 306 300 293 287 282 277 273 270 268 263 260 266 274 281 289 292 288 283 276 279 281 273 237 202 177 176 177 187 191 177 174 152 139 101 165 182 163 153 98 128 158 181 170 171 164 165 167 166 158 154 155 151 154 149 158 152 148 152
341 335 339 343 349 344 340 334 329 326 327 330 334 332 328 329 327 323 321 322 317 316 313 313 317 312 308 306 305 304 296 285 279 275 270 267 265 257 258 270 279 286 290 287 282 279 271 275 285 268 222 197 175 175 178 199 190 190 181 169 171 174 167 150 149 179 44 31 169 180 180 176 168 168 168 161 162 160 156 153 156 163 153 150 151
330 331 345 344 345 339 336 331 327 326 329 329 332 334 331 326 320 315 310 311 310 305 304 303 303 304 305 304 301 297 296 294 287 276 271 262 259 256 255 261 270 278 283 285 282 278 274 281 284 287 263 211 183 179 176 184 193 201 196 188 37 95 157 144 174 132 164 208 152 180 193 183 174 171 172 169 165 158 163 157 160 163 157 154 155
333 347 343 344 340 335 332 328 325 327 328 329 331 336 330 325 318 314 312 309 306 301 301 302 301 300 301 305 304 296 290 287 286 279 267 262 256 255 249 255 266 274 276 282 281 281 283 268 267 278 289 262 194 180 179 177 183 193 194 179 90 137 166 175 168 166 168 169 188 211 325 188 169 179 173 172 170 165 161 161 158 160 158 159 156
350 344 341 338 334 331 328 326 325 327 326 327 330 331 329 320 313 311 310 307 302 296 297 298 300 300 299 304 301 296 290 285 280 277 267 260 254 249 245 248 258 271 270 278 278 279 281 284 281 284 282 283 245 202 180 181 185 186 175 177 145 151 160 162 146 157 148 160 177 174 177 167 173 180 179 175 177 170 163 164 162 159 160 160 158
340 340 334 331 329 327 325 326 325 325 324 326 327 325 323 317 311 311 309 309 309 304 301 300 300 301 300 304 301 298 295 294 294 289 278 264 253 246 243 240 247 264 265 272 280 279 280 281 284 281 277 282 262 210 192 184 187 185 185 170 158 151 153 150 164 171 183 173 165 182 171 166 173 185 177 174 173 174 167 160 160 161 159 161 161
344 337 330 328 327 326 325 325 324 323 323 323 324 321 318 315 313 312 313 312 311 308 303 302 301 299 298 301 305 309 309 299 293 289 285 273 259 248 243 237 233 255 262 269 273 280 282 282 283 281 284 280 284 255 201 186 184 186 185 183 170 164 167 173 177 178 170 180 164 163 166 179 175 162 189 177 166 170 167 165 161 168 158 159 164